Regional Weather Roundup
Issued by NWS

Home | Current Version | Previous Version | Text Only | Print | Product List | Glossary Off
Versions: 1 2 3 4 5 6 7 8 9 10 11 12 13 14 15 16 17 18 19 20 21 22 23 24 25 26 27 28 29 30 31 32 33 34 35 36 37 38 39 40 41 42 43 44 45 46 47 48 49 50

557
ASUS44 KLIX 231610
RWRLA
LOUISIANA WEATHER ROUNDUP
NATIONAL WEATHER SERVICE NEW ORLEANS LA
1100 AM CDT SAT AUG 23 2014

NOTE: "FAIR" INDICATES FEW OR NO CLOUDS BELOW 12,000 FEET WITH NO
      SIGNIFICANT WEATHER AND/OR OBSTRUCTIONS TO VISIBILITY.
      SKY/WX - SKY CONDITION AND SIGNIFICANT WEATHER.
      TMP - AIR TEMPERATURE.    DP   - DEWPOINT TEMPERATURE.
      RH  - RELATIVE HUMIDITY.  PRES - PRESSURE.
      HX  - HEAT INDEX.         WCI  - WIND CHILL INDEX.

*  THESE STATIONS ARE NOT NWS OR FAA STATIONS AND ARE NOT UNDER
   NWS QUALITY CONTROL.

LAZ040-048-061>063-065-066-069-231700-
SOUTHEAST LOUISIANA

CITY           SKY/WX    TMP DP  RH WIND       PRES   REMARKS
N.O. AUDUBON     N/A     93  79  63 MISG        N/A  HX 109
N.O. INTL ARPT MOSUNNY   90  76  63 NW8       30.04S HX 101
N.O. LAKEFRONT SUNNY     88  77  69 NW7       30.04F HX 100
N.O. DOWNTOWN* FAIR      90  72  55 NW6       30.04S HX  96
SLIDELL        SUNNY     92  75  57 N9        30.03S HX 103
BATON ROUGE    MOSUNNY   90  75  61 VRB5      30.05S HX 100
BOOTHVILLE     SUNNY     88  79  74 N9        30.04S HX 103
BELLE CHASSE   MOSUNNY   92  73  53 N6        30.03S HX 100
BOGALUSA*      FAIR      91  74  55 NE6       30.05F HX 100
GALLIANO*      NOT AVBL
NEW ROADS*     FAIR      87  77  71 NW3       30.05S HX  98
GONZALES*      FAIR      89  78  70 NE3       30.04F HX 103
HAMMOND*       SUNNY     93  72  49 NW5       30.06S HX 100
HOUMA*         MOSUNNY   90  73  58 N7        30.04S HX  98
PORT FOURCHON* MOSUNNY   90  75  62 N8        30.05F HX 100

$$

LAZ041-044-053-054-231700-
SOUTHWEST LOUISIANA

CITY           SKY/WX    TMP DP  RH WIND       PRES   REMARKS
LAKE CHARLES   MOSUNNY   88  74  63 SW3       30.05R HX  96
LAFAYETTE      PTSUNNY   88  76  67 NW3       30.05S HX  99
PATTERSON      PTSUNNY   88  79  74 N5        30.08S HX 102
SALT POINT       N/A     90  79  70 W5        30.04S HX 106
NEW IBERIA     PTSUNNY   92  77  61 NE3       30.06S HX 105
CHENAULT AIRPK MOSUNNY   88  73  62 NW5       30.06R HX  96

$$

LAZ027-028-231700-
CENTRAL LOUISIANA

CITY           SKY/WX    TMP DP  RH WIND       PRES   REMARKS
FORT POLK      SUNNY     86  73  65 VRB3      30.06S
ALEXANDRIA INT SUNNY     89  74  60 VRB3      30.04S HX  98
ALEXANDRIA     SUNNY     90  74  59 W6        30.06S HX  99

$$

LAZ001-002-231700-
NORTHWEST LOUISIANA

CITY           SKY/WX    TMP DP  RH WIND       PRES   REMARKS
SHREVEPORT     SUNNY     90  68  48 SW8       30.04S
BARKSDALE AFB  SUNNY     88  67  50 VRB2      30.04S
DTN SHREVEPORT SUNNY     88  67  49 W7        30.04S

$$

LAZ014-016-231700-
NORTHEAST LOUISIANA

CITY           SKY/WX    TMP DP  RH WIND       PRES   REMARKS
MONROE         SUNNY     90  74  59 W3        30.05S HX  99
TALLULAH       SUNNY     90  73  57 VRB3      30.05S HX  98

$$




USA.gov is the U.S. government's official web portal to all federal, state and local government web resources and services.